Location: *
(46.4000°N, 12.6667°E)
Time: 09:13:38
(UTC+00:00)

ATLAS 5 CENTAUR R/B - Pass Details

Date: 09 April 2020
Orbit: 543 x 1116 km, 63.4° (Epoch: 01 May)

Event Time Altitude Azimuth Distance (km) Brightness Sun altitude
Rises 19:59:36 0° 248° (WSW) 2,758 5.3 -21.0°
Reaches altitude 10° 20:01:55 10° 259° (WSW) 1,910 4.6 -21.3°
Maximum altitude 20:05:46 32° 323° (NW) 1,093 3.4 -21.8°
Drops below altitude 10° 20:10:06 10° 27° (NNE) 2,159 4.5 -22.4°
Sets 20:12:52 0° 37° (NE) 3,183 5.3 -22.8°
